Location: Skalnate Pleso
(49.1889°N, 20.2450°E)
Time: 23:16:28
(UTC+02:00)

Cosmos 1269 Rocket - Pass Details

Date: 26 February 2020
Orbit: 772 x 780 km, 74.1° (Epoch: 09 April)

Event Time Altitude Azimuth Distance (km) Brightness Sun altitude
Exits shadow 03:42:39 13° 339° (NNW) 2,120 6.2 -27.6°
Drops below altitude 10° 03:43:55 10° 352° (N) 2,332 6.6 -27.4°
Sets 03:47:26 0° 16° (NNE) 3,265 7.7 -26.9°
